Weather History for Altus, OK

Change the Weather History Date:

Thursday, April 18, 2013

  Actual Average (KLTS) Record (KLTS)
Temperature  
Mean Temperature 45 °F -  
Max Temperature 54 °F 73 °F 98 °F (2011)
Min Temperature 35 °F 48 °F 28 °F (1999)
Degree Days  
Heating Degree Days 20    
Moisture  
Dew Point 30 °F    
Average Humidity 60    
Maximum Humidity 91    
Minimum Humidity 32    
Precipitation  
Precipitation 0.00 in - - ()
Sea Level Pressure  
Sea Level Pressure 30.01 in    
Wind  
Wind Speed 26 mph (NNW)    
Max Wind Speed 33 mph    
Max Gust Speed 44 mph    
Visibility 10 miles    
Events Rain , Thunderstorm    
Averages and records for this station are not official NWS values.
T = Trace of Precipitation, MM = Missing Value Source: NWS Daily Summary

Daily Weather History Graph

Daily Weather History Graph

Search for Another Location

Airport:

Trip Planner

Search our weather history database for the weather conditions in past years. The results will help you decide how hot, cold, wet, or windy it might be!

Date:

Astronomy

Apr. 18, 2013 Rise Set
Actual Time 7:01 AM CDT 8:12 PM CDT
Civil Twilight 6:35 AM CDT 8:38 PM CDT
Nautical Twilight 6:04 AM CDT 9:09 PM CDT
Astronomical Twilight 5:32 AM CDT 9:41 PM CDT
Moon 1:17 PM CDT (4/18) 2:24 AM CDT (4/18)
Length of Visible Light 14h 02m
Length of Day
13h 10m
First Quarter, 52% of the Moon is Illuminated
Apr 18
First Quarter
Apr 25
Full
May 2
Last Quarter
May 9
New
May 17
First Quarter

Hourly Weather History & Observations

Time (CDT) Temp. Windchill Dew Point Humidity Pressure Visibility Wind Dir Wind Speed Gust Speed Precip Events Conditions
12:15 AM 45.1 °F 35.6 °F 42.3 °F 90% 29.75 in 5.0 mi NNW 28.8 mph 42.6 mph N/A   Overcast
12:35 AM 44.2 °F 33.9 °F 41.4 °F 90% 29.77 in 3.0 mi NNW 32.2 mph 40.3 mph N/A   Overcast
12:55 AM 43.5 °F 33.8 °F 41.0 °F 91% 29.78 in 2.0 mi NNW 26.5 mph 35.7 mph N/A Rain Light Rain
1:15 AM 42.8 °F 32.1 °F 39.7 °F 89% 29.81 in 3.0 mi NNW 31.1 mph 43.7 mph N/A Rain Light Rain
1:35 AM 42.3 °F 31.0 °F 39.2 °F 89% 29.82 in 4.0 mi NNW 33.4 mph 41.4 mph N/A Rain Light Rain
1:55 AM 42.1 °F 31.1 °F 38.7 °F 88% 29.81 in 7.0 mi NNW 31.1 mph 40.3 mph N/A Rain Light Rain
2:15 AM 42.3 °F 31.4 °F 37.9 °F 85% 29.82 in 10.0 mi North 31.1 mph 40.3 mph N/A Thunderstorm Overcast
2:35 AM 42.8 °F 33.3 °F 37.6 °F 82% 29.84 in 10.0 mi North 24.2 mph 34.5 mph N/A Thunderstorm Overcast
2:55 AM 43.0 °F 33.8 °F 37.6 °F 81% 29.86 in 10.0 mi North 23.0 mph 28.8 mph N/A   Overcast
3:15 AM 42.8 °F 33.1 °F 36.9 °F 80% 29.85 in 10.0 mi North 25.3 mph - N/A   Mostly Cloudy
3:35 AM 42.8 °F 33.1 °F 36.9 °F 80% 29.82 in 10.0 mi NNW 25.3 mph 39.1 mph N/A   Mostly Cloudy
3:55 AM 41.9 °F 30.5 °F 35.6 °F 78% 29.82 in 10.0 mi NNW 33.4 mph 42.6 mph N/A   Mostly Cloudy
4:15 AM 41.2 °F 30.1 °F 34.2 °F 76% 29.85 in 10.0 mi NNW 29.9 mph 43.7 mph N/A   Mostly Cloudy
4:35 AM 40.5 °F 29.5 °F 33.1 °F 75% 29.87 in 10.0 mi North 27.6 mph 41.4 mph N/A   Overcast
4:55 AM 40.1 °F 29.0 °F 33.1 °F 76% 29.88 in 10.0 mi NNW 27.6 mph 38.0 mph N/A   Mostly Cloudy
5:15 AM 40.1 °F 28.8 °F 32.2 °F 73% 29.91 in 10.0 mi NNW 28.8 mph 36.8 mph N/A   Mostly Cloudy
5:35 AM 39.2 °F 27.6 °F 31.1 °F 73% 29.93 in 10.0 mi North 28.8 mph 40.3 mph N/A   Mostly Cloudy
5:55 AM 38.5 °F 27.3 °F 31.1 °F 75% 29.94 in 10.0 mi NNW 25.3 mph - N/A   Scattered Clouds
6:15 AM 38.5 °F 26.6 °F 30.7 °F 74% 29.95 in 10.0 mi NNW 28.8 mph 34.5 mph N/A   Scattered Clouds
6:35 AM 39.2 °F 28.0 °F 31.1 °F 73% 29.97 in 10.0 mi NNW 26.5 mph 32.2 mph N/A   Mostly Cloudy
6:55 AM 38.5 °F 27.8 °F 30.6 °F 73% 29.99 in 10.0 mi NNW 23.0 mph 32.2 mph N/A   Mostly Cloudy
7:15 AM 38.3 °F 26.6 °F 29.7 °F 71% 30.00 in 10.0 mi NNW 27.6 mph 35.7 mph N/A   Overcast
7:35 AM 38.3 °F 26.8 °F 29.3 °F 70% 30.01 in 10.0 mi NNW 26.5 mph 32.2 mph N/A   Overcast
7:55 AM 38.5 °F 27.3 °F 29.7 °F 71% 30.02 in 10.0 mi NNW 25.3 mph 35.7 mph N/A   Overcast
8:15 AM 38.8 °F 27.3 °F 29.7 °F 70% 30.02 in 10.0 mi NNW 27.6 mph 34.5 mph N/A   Overcast
8:35 AM 38.7 °F 26.1 °F 28.6 °F 67% 30.01 in 10.0 mi NNW 33.4 mph 40.3 mph N/A   Mostly Cloudy
8:55 AM 39.9 °F 28.0 °F 29.7 °F 67% 30.03 in 10.0 mi North 32.2 mph 40.3 mph N/A   Mostly Cloudy
9:15 AM 39.6 °F 28.5 °F 29.5 °F 67% 30.05 in 10.0 mi NNW 26.5 mph 36.8 mph N/A   Mostly Cloudy
9:35 AM 40.5 °F 29.7 °F 29.7 °F 65% 30.05 in 10.0 mi NNW 26.5 mph 33.4 mph N/A   Mostly Cloudy
9:55 AM 40.6 °F 30.2 °F 29.5 °F 64% 30.06 in 10.0 mi NNW 25.3 mph 33.4 mph N/A   Mostly Cloudy
10:15 AM 40.1 °F 29.9 °F 29.3 °F 65% 30.06 in 10.0 mi North 23.0 mph - N/A   Mostly Cloudy
10:35 AM 42.8 °F 33.5 °F 30.6 °F 62% 30.06 in 10.0 mi North 23.0 mph 28.8 mph N/A   Mostly Cloudy
11:15 AM 44.6 °F 36.1 °F 30.6 °F 58% 30.06 in 10.0 mi NNW 21.9 mph 26.5 mph N/A   Clear
11:35 AM 47.3 °F - 31.3 °F 54% 30.05 in 10.0 mi NNW 26.5 mph 32.2 mph N/A   Scattered Clouds
11:55 AM 48.0 °F - 30.9 °F 52% 30.06 in 10.0 mi North 24.2 mph 32.2 mph N/A   Scattered Clouds
12:15 PM 47.8 °F - 30.2 °F 50% 30.06 in 10.0 mi NNW 24.2 mph 33.4 mph N/A   Scattered Clouds
12:35 PM 48.9 °F - 30.7 °F 50% 30.06 in 10.0 mi NNW 18.4 mph 29.9 mph N/A   Scattered Clouds
12:55 PM 49.5 °F - 29.8 °F 47% 30.06 in 10.0 mi North 25.3 mph 33.4 mph N/A   Scattered Clouds
1:15 PM 49.6 °F - 29.8 °F 47% 30.06 in 10.0 mi North 26.5 mph 31.1 mph N/A   Scattered Clouds
1:35 PM 50.4 °F - 29.1 °F 44% 30.06 in 10.0 mi North 25.3 mph 35.7 mph N/A   Scattered Clouds
1:55 PM 52.0 °F - 29.1 °F 41% 30.06 in 10.0 mi NNW 21.9 mph 29.9 mph N/A   Scattered Clouds
2:15 PM 52.7 °F - 29.1 °F 40% 30.06 in 10.0 mi North 21.9 mph 29.9 mph N/A   Scattered Clouds
2:35 PM 52.5 °F - 28.4 °F 39% 30.06 in 10.0 mi North 20.7 mph 31.1 mph N/A   Scattered Clouds
2:55 PM 52.3 °F - 27.1 °F 38% 30.06 in 10.0 mi NNW 23.0 mph 32.2 mph N/A   Scattered Clouds
3:15 PM 53.2 °F - 27.7 °F 37% 30.06 in 10.0 mi NNW 23.0 mph 31.1 mph N/A   Scattered Clouds
3:35 PM 53.1 °F - 28.6 °F 39% 30.06 in 10.0 mi NNW 23.0 mph 32.2 mph N/A   Scattered Clouds
3:55 PM 53.1 °F - 27.1 °F 37% 30.06 in 10.0 mi NW 23.0 mph 28.8 mph N/A   Scattered Clouds
4:15 PM 53.2 °F - 26.2 °F 35% 30.06 in 10.0 mi NNW 26.5 mph 31.1 mph N/A   Clear
4:35 PM 53.8 °F - 26.6 °F 35% 30.06 in 10.0 mi NNW 21.9 mph 32.2 mph N/A   Clear
4:55 PM 53.4 °F - 25.5 °F 34% 30.06 in 10.0 mi NNW 24.2 mph 34.5 mph N/A   Clear
5:15 PM 53.6 °F - 25.2 °F 33% 30.07 in 10.0 mi North 18.4 mph 26.5 mph N/A   Clear
5:35 PM 54.1 °F - 25.2 °F 33% 30.07 in 10.0 mi NNW 25.3 mph 28.8 mph N/A   Clear
5:55 PM 53.8 °F - 24.1 °F 32% 30.08 in 10.0 mi NNW 19.6 mph 31.1 mph N/A   Clear
6:15 PM 52.2 °F - 23.7 °F 33% 30.08 in 10.0 mi NNW 20.7 mph 26.5 mph N/A   Clear
6:35 PM 52.7 °F - 23.7 °F 32% 30.09 in 10.0 mi NNW 21.9 mph 29.9 mph N/A   Clear
6:55 PM 51.8 °F - 23.4 °F 33% 30.10 in 10.0 mi NNW 20.7 mph 29.9 mph N/A   Clear
7:15 PM 51.3 °F - 23.7 °F 34% 30.11 in 10.0 mi NNW 18.4 mph 24.2 mph N/A   Clear
7:35 PM 50.2 °F - 22.5 °F 34% 30.12 in 10.0 mi NNW 16.1 mph 24.2 mph N/A   Clear
7:55 PM 48.9 °F - 24.3 °F 38% 30.13 in 10.0 mi NNW 12.7 mph - N/A   Clear
8:15 PM 47.5 °F - 23.4 °F 39% 30.14 in 10.0 mi NNW 15.0 mph - N/A   Clear
8:35 PM 45.3 °F 39.3 °F 24.8 °F 45% 30.15 in 10.0 mi NNW 12.7 mph - N/A   Clear
10:35 PM 38.8 °F 34.6 °F 28.0 °F 65% 30.20 in 10.0 mi North 5.8 mph - N/A   Clear
10:55 PM 37.2 °F 31.9 °F 27.9 °F 69% 30.21 in 10.0 mi North 6.9 mph - N/A   Clear
11:15 PM 36.7 °F 32.0 °F 28.4 °F 72% 30.21 in 10.0 mi North 5.8 mph - N/A   Clear
11:35 PM 36.1 °F 32.3 °F 28.6 °F 74% 30.21 in 10.0 mi NNW 4.6 mph - N/A   Clear
11:55 PM 35.1 °F 30.1 °F 28.9 °F 78% 30.21 in 10.0 mi NW 5.8 mph - N/A   Clear